Date String (YYYY-MM-DD hh:mm:ss) UTC,Instrument flags,Ambient pressure (hPa),Sample flow (lpm),Bypass flow (lpm),Sample temperature (°C),Ambient temperature (°C),ASC tube jacket temperature (°C),LED temperature (°C),Box temperature (°C),Sample RH (%),Span deviation,Mass concentration (μg/m³),Mass concentration (μg/m³),Mass concentration (μg/m³)
DateTimeUTC,F1_M11,P_M11,Q1_M11,Q2_M11,T1_M11,T2_M11,T3_M11,T4_M11,T5_M11,U1_M11,ZSPAN_M11,X0_M11,X2_M11,X1_M11
2023-03-02 06:00:00,,0817.1,5.02,0.00,22.4,20.6,00.0,31.2,24.0,13.8,0000.0,0009.57,0005.73,0005.30
2023-03-02 06:01:00,,0817.1,5.01,0.00,22.3,20.6,00.0,31.1,24.0,13.8,0000.0,0009.59,0005.74,0005.30
2023-03-02 06:02:00,,0817.1,5.00,0.00,22.3,20.5,00.0,31.1,24.0,13.8,0000.0,0009.56,0005.78,0005.31
2023-03-02 06:03:00,,0817.1,4.99,0.00,22.3,20.5,00.0,31.1,24.0,13.8,0000.0,0009.47,0005.76,0005.30
2023-03-02 06:04:00,,0817.1,4.99,0.00,22.3,20.4,00.0,31.1,23.9,13.9,0000.0,0009.41,0005.75,0005.30
2023-03-02 06:05:00,,0817.1,5.00,0.00,22.2,20.4,00.0,31.1,23.9,13.9,0000.0,0009.36,0005.74,0005.29
2023-03-02 06:06:00,,0817.0,5.02,0.00,22.3,21.4,00.0,31.0,24.1,13.8,0000.0,0009.83,0005.76,0005.30
2023-03-02 06:07:00,,0817.1,4.99,0.00,22.4,22.6,00.0,31.0,24.3,13.7,0000.0,0010.00,0005.79,0005.32
2023-03-02 06:08:00,,0817.0,4.98,0.00,22.5,23.2,00.0,31.1,24.5,13.6,0000.0,0010.12,0005.78,0005.33
2023-03-02 06:09:00,,0817.0,5.00,0.00,22.5,22.7,00.0,31.1,24.4,13.6,0000.0,0010.46,0005.73,0005.34
2023-03-02 06:10:00,,0817.1,4.99,0.00,22.5,22.2,00.0,31.2,24.3,13.6,0000.0,0010.40,0005.73,0005.36
2023-03-02 06:11:00,,0817.1,5.00,0.00,22.5,21.7,00.0,31.2,24.2,13.5,0000.0,0010.35,0005.71,0005.37
2023-03-02 06:12:00,,0817.1,4.98,0.00,22.5,21.4,00.0,31.2,24.1,13.5,0000.0,0010.50,0005.75,0005.39
2023-03-02 06:13:00,,0817.2,5.00,0.00,22.4,21.1,00.0,31.2,24.1,13.5,0000.0,0010.25,0005.73,0005.41
2023-03-02 06:14:00,,0817.1,5.00,0.00,22.4,21.0,00.0,31.2,24.1,13.4,0000.0,0009.88,0005.74,0005.44
2023-03-02 06:15:00,,0817.1,4.99,0.00,22.4,20.8,00.0,31.2,24.0,13.4,0000.0,0009.94,0005.76,0005.46
2023-03-02 06:16:00,,0817.1,4.99,0.00,22.4,20.7,00.0,31.1,24.0,13.4,0000.0,0010.12,0005.80,0005.49
2023-03-02 06:17:00,,0817.1,5.00,0.00,22.3,20.6,00.0,31.1,23.9,13.4,0000.0,0009.81,0005.79,0005.48
2023-03-02 06:18:00,,0817.1,5.00,0.00,22.3,20.5,00.0,31.1,23.9,13.4,0000.0,0009.55,0005.76,0005.48
2023-03-02 06:19:00,,0817.0,4.99,0.00,22.2,20.4,00.0,31.1,23.8,13.4,0000.0,0009.44,0005.76,0005.48
2023-03-02 06:20:00,,0817.0,5.01,0.00,22.2,20.3,00.0,31.1,23.8,13.4,0000.0,0008.84,0005.78,0005.49
2023-03-02 06:21:00,,0817.0,5.00,0.00,22.2,20.4,00.0,31.1,23.7,13.5,0000.0,0008.85,0005.78,0005.49
2023-03-02 06:22:00,,0817.0,5.01,0.00,22.2,21.4,00.0,31.0,24.0,13.5,0000.0,0008.94,0005.78,0005.50
2023-03-02 06:23:00,,0817.0,4.97,0.00,22.3,22.5,00.0,31.0,24.2,13.4,0000.0,0009.47,0005.77,0005.52
2023-03-02 06:24:00,,0817.0,5.04,0.00,22.4,23.4,00.0,31.1,24.4,13.4,0000.0,0009.73,0005.79,0005.51
2023-03-02 06:25:00,,0817.0,4.98,0.00,22.5,23.2,00.0,31.1,24.4,13.4,0000.0,0010.07,0005.81,0005.52
2023-03-02 06:26:00,,0816.9,5.00,0.00,22.5,22.6,00.0,31.2,24.4,13.4,0000.0,0010.00,0005.79,0005.51
2023-03-02 06:27:00,,0816.9,4.97,0.00,22.5,22.0,00.0,31.2,24.2,13.4,0000.0,0009.86,0005.79,0005.52
2023-03-02 06:28:00,,0816.9,4.99,0.00,22.5,21.6,00.0,31.2,24.2,13.4,0000.0,0009.89,0005.81,0005.54
2023-03-02 06:29:00,,0817.0,5.00,0.00,22.5,21.3,00.0,31.2,24.1,13.4,0000.0,0010.00,0005.82,0005.55
2023-03-02 06:30:00,,0817.0,4.99,0.00,22.4,21.1,00.0,31.2,24.1,13.4,0000.0,0009.99,0005.81,0005.56
2023-03-02 06:31:00,,0817.0,5.01,0.00,22.4,20.9,00.0,31.2,24.0,13.4,0000.0,0010.11,0005.85,0005.55
2023-03-02 06:32:00,,0817.0,5.00,0.00,22.4,20.7,00.0,31.2,24.0,13.5,0000.0,0010.11,0005.85,0005.54
2023-03-02 06:33:00,,0817.0,5.00,0.00,22.3,20.6,00.0,31.1,23.9,13.5,0000.0,0010.17,0005.87,0005.53
2023-03-02 06:34:00,,0817.0,4.99,0.00,22.3,20.5,00.0,31.1,23.8,13.6,0000.0,0009.84,0005.88,0005.52
2023-03-02 06:35:00,,0817.0,5.00,0.00,22.2,20.4,00.0,31.1,23.8,13.7,0000.0,0009.77,0005.89,0005.52
2023-03-02 06:36:00,,0817.0,5.01,0.00,22.2,20.3,00.0,31.1,23.7,13.7,0000.0,0009.44,0005.87,0005.51
2023-03-02 06:37:00,,0817.0,5.01,0.00,22.2,20.4,00.0,31.1,23.7,13.8,0000.0,0009.48,0005.87,0005.48
2023-03-02 06:38:00,,0817.0,5.00,0.00,22.2,21.3,00.0,31.0,23.9,13.8,0000.0,0009.43,0005.84,0005.45
2023-03-02 06:39:00,,0817.0,5.00,0.00,22.3,22.5,00.0,31.0,24.2,13.7,0000.0,0009.33,0005.79,0005.41
2023-03-02 06:40:00,,0817.0,4.97,0.00,22.4,23.1,00.0,31.1,24.3,13.6,0000.0,0009.17,0005.76,0005.37
2023-03-02 06:41:00,,0817.0,4.99,0.00,22.5,22.6,00.0,31.1,24.3,13.6,0000.0,0009.15,0005.75,0005.35
2023-03-02 06:42:00,,0817.0,4.99,0.00,22.4,22.0,00.0,31.1,24.2,13.6,0000.0,0009.09,0005.71,0005.33
2023-03-02 06:43:00,,0817.0,5.00,0.00,22.4,21.6,00.0,31.1,24.0,13.6,0000.0,0009.07,0005.68,0005.31
2023-03-02 06:44:00,,0816.9,5.00,0.00,22.4,21.3,00.0,31.1,24.0,13.6,0000.0,0009.06,0005.68,0005.30
2023-03-02 06:45:00,,0816.9,5.02,0.00,22.4,21.0,00.0,31.1,24.0,13.6,0000.0,0009.18,0005.69,0005.29
2023-03-02 06:46:00,,0816.9,5.00,0.00,22.3,20.8,00.0,31.1,23.9,13.7,0000.0,0009.01,0005.68,0005.27
2023-03-02 06:47:00,,0817.0,5.01,0.00,22.3,20.7,00.0,31.1,23.9,13.7,0000.0,0008.91,0005.66,0005.25
2023-03-02 06:48:00,,0817.0,5.02,0.00,22.3,20.6,00.0,31.1,23.9,13.7,0000.0,0008.91,0005.67,0005.26
2023-03-02 06:49:00,,0817.0,5.01,0.00,22.3,20.5,00.0,31.1,23.9,13.7,0000.0,0009.39,0005.71,0005.28
2023-03-02 06:50:00,,0817.0,5.02,0.00,22.2,20.4,00.0,31.1,23.8,13.7,0000.0,0009.57,0005.73,0005.29
2023-03-02 06:51:00,,0817.0,4.99,0.00,22.2,20.3,00.0,31.0,23.8,13.7,0000.0,0009.58,0005.74,0005.31
2023-03-02 06:52:00,,0817.0,5.01,0.00,22.2,20.4,00.0,31.0,23.8,13.8,0000.0,0009.64,0005.75,0005.32
2023-03-02 06:53:00,,0817.0,5.00,0.00,22.2,21.4,00.0,31.0,24.0,13.7,0000.0,0009.52,0005.72,0005.31
2023-03-02 06:54:00,,0817.2,5.00,0.00,22.3,22.6,00.0,31.0,24.2,13.6,0000.0,0009.52,0005.73,0005.32
2023-03-02 06:55:00,,0817.0,5.00,0.00,22.4,23.0,00.0,31.1,24.3,13.6,0000.0,0009.44,0005.70,0005.31
2023-03-02 06:56:00,,0817.0,5.00,0.00,22.4,22.5,00.0,31.1,24.2,13.5,0000.0,0009.06,0005.68,0005.31
2023-03-02 06:57:00,,0817.2,4.99,0.00,22.4,22.0,00.0,31.1,24.1,13.5,0000.0,0009.06,0005.68,0005.32
2023-03-02 06:58:00,,0817.1,5.00,0.00,22.4,21.5,00.0,31.1,24.1,13.5,0000.0,0009.10,0005.69,0005.33
2023-03-02 06:59:00,,0817.0,5.00,0.00,22.4,21.2,00.0,31.1,24.0,13.5,0000.0,0009.08,0005.69,0005.34
